EN

Hourly Weather Belfast

Today, 1 March, Monday

Time Temperature Precipitation Wind Pressure Humidity
00:00 +4°C° 0 mm 1 mps 774 mmHg 93%
01:00 +4°C° 0 mm 1 mps 774 mmHg 93%
02:00 +4°C° 0 mm 1 mps 773 mmHg 94%
03:00 +3°C° 0 mm 2 mps 773 mmHg 94%
04:00 +3°C° 0 mm 2 mps 773 mmHg 95%
05:00 +3°C° 0 mm 2 mps 773 mmHg 95%
06:00 +3°C° 0 mm 2 mps 773 mmHg 96%
07:00 +4°C° 0 mm 2 mps 773 mmHg 95%
08:00 +5°C° 0 mm 2 mps 773 mmHg 93%
09:00 +5°C° 0 mm 2 mps 773 mmHg 92%
10:00 +5°C° 0 mm 3 mps 772 mmHg 88%
11:00 +8°C° 0 mm 3 mps 772 mmHg 84%
12:00 +9°C° 0 mm 3 mps 772 mmHg 80%
13:00 +9°C° 0 mm 3 mps 772 mmHg 80%
14:00 +9°C° 0 mm 3 mps 771 mmHg 80%
15:00 +9°C° 0 mm 3 mps 771 mmHg 79%
16:00 +7°C° 0 mm 3 mps 771 mmHg 83%
17:00 +5°C° 0 mm 3 mps 770 mmHg 87%
18:00 +4°C° 0 mm 3 mps 770 mmHg 91%
19:00 +4°C° 0 mm 3 mps 770 mmHg 90%
20:00 +3°C° 0 mm 3 mps 770 mmHg 90%
21:00 +3°C° 0 mm 3 mps 770 mmHg 89%
22:00 +3°C° 0 mm 3 mps 770 mmHg 90%
23:00 +3°C° 0 mm 3 mps 770 mmHg 91%

Tomorrow, 2 March, Tuesday

Time Temperature Precipitation Wind Pressure Humidity
00:00 +3°C° 0 mm 3 mps 770 mmHg 91%
01:00 +3°C° 0 mm 3 mps 770 mmHg 93%
02:00 +3°C° 0 mm 3 mps 770 mmHg 94%
03:00 +4°C° 0 mm 3 mps 770 mmHg 95%
04:00 +4°C° 0 mm 3 mps 770 mmHg 95%
05:00 +3°C° 0 mm 3 mps 770 mmHg 95%
06:00 +3°C° 0 mm 3 mps 770 mmHg 95%
07:00 +4°C° 0 mm 3 mps 770 mmHg 94%
08:00 +4°C° 0 mm 3 mps 770 mmHg 93%
09:00 +5°C° 0 mm 3 mps 770 mmHg 93%
10:00 +7°C° 0 mm 3 mps 770 mmHg 88%
11:00 +8°C° 0 mm 3 mps 770 mmHg 84%
12:00 +9°C° 0 mm 3 mps 770 mmHg 79%
13:00 +9°C° 0 mm 3 mps 770 mmHg 78%
14:00 +9°C° 0 mm 3 mps 769 mmHg 76%
15:00 +9°C° 0 mm 3 mps 769 mmHg 75%
16:00 +7°C° 0 mm 2 mps 769 mmHg 80%
17:00 +6°C° 0 mm 2 mps 769 mmHg 85%
18:00 +4°C° 0 mm 2 mps 769 mmHg 90%
19:00 +5°C° 0 mm 1 mps 769 mmHg 90%
20:00 +4°C° 0 mm 1 mps 769 mmHg 90%
21:00 +4°C° 0 mm 1 mps 769 mmHg 90%
22:00 +4°C° 0 mm 1 mps 769 mmHg 89%
23:00 +3°C° 0 mm 1 mps 769 mmHg 89%

Day after tomorrow, 3 March, Wednesday

Time Temperature Precipitation Wind Pressure Humidity
00:00 +3°C° 0 mm 1 mps 769 mmHg 89%
01:00 +3°C° 0 mm 1 mps 769 mmHg 89%
02:00 +3°C° 0 mm 1 mps 769 mmHg 89%
03:00 +3°C° 0 mm 1 mps 769 mmHg 89%
04:00 +3°C° 0 mm 1 mps 769 mmHg 89%
05:00 +3°C° 0 mm 1 mps 768 mmHg 89%
06:00 +3°C° 0 mm 1 mps 768 mmHg 89%
07:00 +4°C° 0 mm 1 mps 768 mmHg 87%
08:00 +5°C° 0 mm 1 mps 768 mmHg 85%
09:00 +6°C° 0 mm 1 mps 768 mmHg 84%
10:00 +6°C° 0 mm 2 mps 768 mmHg 80%
11:00 +8°C° 0 mm 2 mps 768 mmHg 76%
12:00 +9°C° 0 mm 2 mps 768 mmHg 72%
13:00 +9°C° 0 mm 2 mps 768 mmHg 72%
14:00 +9°C° 0 mm 3 mps 768 mmHg 72%
15:00 +10°C° 0 mm 3 mps 768 mmHg 72%
16:00 +8°C° 0 mm 3 mps 767 mmHg 78%
17:00 +7°C° 0 mm 3 mps 767 mmHg 84%
18:00 +5°C° 0 mm 4 mps 767 mmHg 90%
19:00 +4°C° 0 mm 3 mps 767 mmHg 91%
20:00 +3°C° 0 mm 3 mps 767 mmHg 92%
21:00 +2°C° 0 mm 3 mps 767 mmHg 94%
22:00 +2°C° 0 mm 3 mps 767 mmHg 93%
23:00 +2°C° 0 mm 3 mps 767 mmHg 93%

4 March, Thursday

Time Temperature Precipitation Wind Pressure Humidity
00:00 +2°C° 0 mm 3 mps 767 mmHg 93%
01:00 +1°C° 0 mm 3 mps 767 mmHg 93%
02:00 +1°C° 0 mm 3 mps 767 mmHg 94%
03:00 +1°C° 0 mm 3 mps 767 mmHg 94%
04:00 +1°C° 0 mm 3 mps 767 mmHg 94%
05:00 +1°C° 0 mm 3 mps 767 mmHg 93%
06:00 +1°C° 0 mm 3 mps 767 mmHg 93%
07:00 +2°C° 0 mm 3 mps 767 mmHg 91%
08:00 +3°C° 0 mm 4 mps 767 mmHg 88%
09:00 +4°C° 0 mm 4 mps 767 mmHg 85%
10:00 +3°C° 0 mm 5 mps 767 mmHg 82%
11:00 +5°C° 0 mm 5 mps 768 mmHg 79%
12:00 +6°C° 0 mm 5 mps 768 mmHg 76%
13:00 +5°C° 0.1 mm 5 mps 768 mmHg 79%
14:00 +4°C° 0.1 mm 6 mps 768 mmHg 82%
15:00 +3°C° 0.1 mm 6 mps 768 mmHg 85%
16:00 +3°C° 0.1 mm 6 mps 769 mmHg 84%
17:00 +2°C° 0.1 mm 5 mps 769 mmHg 83%
18:00 +2°C° 0.1 mm 5 mps 769 mmHg 82%
19:00 +1°C° 0 mm 5 mps 770 mmHg 83%
20:00 0°C° 0 mm 5 mps 770 mmHg 84%
21:00 -1°C° 0 mm 5 mps 771 mmHg 84%
22:00 -1°C° 0 mm 5 mps 771 mmHg 84%
23:00 -1°C° 0 mm 5 mps 771 mmHg 84%

5 March, Friday

Time Temperature Precipitation Wind Pressure Humidity
00:00 -1°C° 0 mm 5 mps 772 mmHg 84%
01:00 -1°C° 0 mm 4 mps 772 mmHg 84%
02:00 -2°C° 0 mm 4 mps 772 mmHg 85%
03:00 -2°C° 0 mm 4 mps 772 mmHg 85%
04:00 -1°C° 0 mm 3 mps 772 mmHg 86%
05:00 -1°C° 0 mm 3 mps 772 mmHg 86%
06:00 -1°C° 0 mm 3 mps 773 mmHg 87%
07:00 0°C° 0 mm 3 mps 773 mmHg 82%
08:00 +2°C° 0 mm 2 mps 773 mmHg 78%
09:00 +3°C° 0 mm 2 mps 773 mmHg 74%
10:00 +3°C° 0 mm 2 mps 774 mmHg 70%
11:00 +4°C° 0 mm 2 mps 774 mmHg 65%
12:00 +5°C° 0 mm 2 mps 774 mmHg 60%
13:00 +5°C° 0 mm 2 mps 774 mmHg 60%
14:00 +5°C° 0 mm 2 mps 774 mmHg 60%
15:00 +6°C° 0 mm 1 mps 774 mmHg 59%
16:00 +5°C° 0 mm 1 mps 774 mmHg 66%
17:00 +4°C° 0 mm 1 mps 774 mmHg 72%
18:00 +2°C° 0 mm 1 mps 774 mmHg 79%
19:00 +1°C° 0 mm 1 mps 774 mmHg 80%
20:00 +1°C° 0 mm 1 mps 774 mmHg 81%
21:00 0°C° 0 mm 1 mps 775 mmHg 82%
22:00 0°C° 0 mm 1 mps 775 mmHg 82%
23:00 0°C° 0 mm 1 mps 775 mmHg 81%

6 March, Saturday

Time Temperature Precipitation Wind Pressure Humidity
00:00 0°C° 0 mm 1 mps 775 mmHg 81%
01:00 0°C° 0 mm 1 mps 775 mmHg 82%
02:00 0°C° 0 mm 1 mps 775 mmHg 83%
03:00 -1°C° 0 mm 1 mps 775 mmHg 83%
04:00 -1°C° 0 mm 1 mps 775 mmHg 84%
05:00 0°C° 0 mm 1 mps 775 mmHg 85%
06:00 0°C° 0 mm 1 mps 775 mmHg 86%
07:00 +1°C° 0 mm 1 mps 775 mmHg 81%
08:00 +2°C° 0 mm 1 mps 775 mmHg 77%
09:00 +2°C° 0 mm 2 mps 775 mmHg 72%
10:00 +4°C° 0 mm 2 mps 775 mmHg 67%
11:00 +5°C° 0 mm 2 mps 775 mmHg 63%
12:00 +5°C° 0 mm 3 mps 775 mmHg 58%
13:00 +7°C° 0 mm 3 mps 775 mmHg 59%
14:00 +7°C° 0 mm 3 mps 775 mmHg 59%
15:00 +7°C° 0 mm 3 mps 775 mmHg 60%
16:00 +5°C° 0 mm 3 mps 775 mmHg 66%
17:00 +4°C° 0 mm 3 mps 774 mmHg 73%
18:00 +3°C° 0 mm 3 mps 774 mmHg 79%
19:00 +2°C° 0 mm 3 mps 774 mmHg 82%
20:00 +1°C° 0 mm 3 mps 775 mmHg 86%
21:00 +1°C° 0 mm 3 mps 775 mmHg 89%
22:00 0°C° 0 mm 3 mps 775 mmHg 90%
23:00 0°C° 0 mm 3 mps 775 mmHg 90%
Show more